GW1515 Weather Reports


Display with metric or nautical units.
time (UTC)temp
F
wind
direction
speed
MPH
gust
MPH
rain 1hr
in
rain 24hr
in
rain mn
in
humidity
%
barometer
mb
20260508092946 44 135 0.0 2.0 0.00 0.00 0.00 92 1011.4
20260508092443 45 282 0.0 2.0 0.00 0.00 0.00 92 1011.4
20260508091942 45 64 0.0 2.0 0.00 0.00 0.00 92 1011.2
20260508091438 45 12 1.0 2.0 0.00 0.00 0.00 92 1011.2
20260508090935 44 39 0.0 2.0 0.00 0.00 0.00 92 1011.3
20260508090434 44 44 0.0 1.0 0.00 0.00 0.00 92 1011.4
20260508085929 44 190 0.0 2.0 0.00 0.00 0.00 92 1011.3
20260508085426 44 157 0.0 2.0 0.00 0.00 0.00 91 1011.3
20260508084923 44 152 0.0 2.0 0.00 0.00 0.00 91 1011.3
20260508084420 45 0 1.0 2.0 0.00 0.00 0.00 91 1011.4
20260508083918 45 104 0.0 1.0 0.00 0.00 0.00 89 1011.2
20260508083415 46 358 1.0 2.0 0.00 0.00 0.00 89 1011.3
20260508082914 46 5 1.0 3.0 0.00 0.00 0.00 88 1011.4
20260508082412 47 288 0.0 2.0 0.00 0.00 0.00 87 1011.4
20260508081910 48 294 0.0 3.0 0.00 0.00 0.00 87 1011.5
20260508081407 47 251 2.0 3.0 0.00 0.00 0.00 87 1011.3
20260508080903 48 207 2.0 3.0 0.00 0.00 0.00 86 1011.3
20260508080401 48 200 0.0 3.0 0.00 0.00 0.00 86 1011.3
20260508075857 48 200 2.0 5.0 0.00 0.00 0.00 86 1011.2
20260508075355 47 202 2.0 3.0 0.00 0.00 0.00 88 1011.2
20260508074852 47 166 0.0 1.0 0.00 0.00 0.00 89 1011.3
20260508074349 46 180 0.0 1.0 0.00 0.00 0.00 89 1011.4
20260508073846 46 38 0.0 1.0 0.00 0.00 0.00 88 1011.5
20260508073344 47 309 0.0 2.0 0.00 0.00 0.00 87 1011.7
20260508072840 48 282 0.0 3.0 0.00 0.00 0.00 87 1011.7
20260508072337 47 246 1.0 3.0 0.00 0.00 0.00 87 1011.5
20260508071834 48 176 0.0 2.0 0.00 0.00 0.00 86 1011.6
20260508071333 48 277 1.0 3.0 0.00 0.00 0.00 86 1011.6
20260508070830 48 254 2.0 3.0 0.00 0.00 0.00 86 1011.6
20260508070328 48 196 1.0 3.0 0.00 0.00 0.00 87 1011.7
20260508065825 48 199 1.0 4.0 0.00 0.00 0.00 86 1011.5
20260508065323 48 258 2.0 4.0 0.00 0.00 0.00 87 1011.6
20260508064821 48 255 1.0 3.0 0.00 0.00 0.00 86 1011.7
20260508064318 48 178 0.0 5.0 0.00 0.00 0.00 86 1011.8
20260508063816 48 252 0.0 3.0 0.00 0.00 0.00 86 1011.9
20260508063314 48 288 1.0 2.0 0.00 0.00 0.00 86 1011.7
20260508062810 48 253 2.0 4.0 0.00 0.00 0.00 85 1011.7
20260508062308 48 255 2.0 3.0 0.00 0.00 0.00 85 1011.7
20260508061804 48 229 1.0 3.0 0.00 0.00 0.00 85 1011.7
20260508061302 48 268 0.0 3.0 0.00 0.00 0.00 85 1011.7
20260508060758 48 235 0.0 3.0 0.00 0.00 0.00 84 1012.0
20260508060256 48 215 0.0 5.0 0.00 0.00 0.00 84 1011.9
20260508055751 49 264 2.0 3.0 0.00 0.00 0.00 83 1011.8
20260508055249 49 251 2.0 4.0 0.00 0.00 0.00 83 1011.8
20260508054745 49 252 1.0 3.0 0.00 0.00 0.00 83 1011.6
20260508054243 49 246 2.0 7.0 0.00 0.00 0.00 82 1011.7
20260508053740 49 249 2.0 5.0 0.00 0.00 0.00 83 1011.7
20260508053237 48 231 1.0 3.0 0.00 0.00 0.00 83 1011.6
20260508052734 48 239 2.0 3.0 0.00 0.00 0.00 83 1011.5
20260508052231 48 219 0.0 2.0 0.00 0.00 0.00 83 1011.7
20260508051727 48 266 1.0 2.0 0.00 0.00 0.00 83 1011.5
20260508051223 48 257 0.0 1.0 0.00 0.00 0.00 83 1011.7
20260508050720 48 229 0.0 1.0 0.00 0.00 0.00 83 1011.6
20260508050217 48 252 0.0 2.0 0.00 0.00 0.00 83 1011.6
20260508045712 49 159 0.0 2.0 0.00 0.00 0.00 82 1011.7
20260508045210 49 259 1.0 2.0 0.00 0.00 0.00 82 1011.5
20260508044708 49 261 0.0 2.0 0.00 0.00 0.00 82 1011.6
20260508044204 48 233 0.0 3.0 0.00 0.00 0.00 83 1011.5
20260508043700 48 36 2.0 4.0 0.00 0.00 0.00 83 1011.5
20260508043158 48 232 0.0 1.0 0.00 0.00 0.00 83 1011.5
20260508042654 48 150 3.0 3.0 0.00 0.00 0.00 83 1011.5
20260508042152 48 35 2.0 3.0 0.00 0.00 0.00 82 1011.4
20260508041648 49 179 0.0 4.0 0.00 0.00 0.00 82 1011.4
20260508041145 49 172 2.0 2.0 0.00 0.00 0.00 81 1011.1
20260508040641 50 343 4.0 6.0 0.00 0.00 0.00 78 1011.2
20260508040139 50 233 2.0 4.0 0.00 0.00 0.00 77 1011.2
20260508035636 51 195 0.0 6.0 0.00 0.00 0.00 76 1010.9
20260508035133 51 197 3.0 9.0 0.00 0.00 0.00 75 1011.1
20260508034630 51 210 5.0 8.0 0.00 0.00 0.00 75 1011.0
20260508034127 52 207 5.0 10.0 0.00 0.00 0.00 74 1011.0
20260508033624 51 215 8.0 11.0 0.00 0.00 0.00 74 1010.9
20260508033123 51 228 4.0 8.0 0.00 0.00 0.00 73 1011.0
20260508032618 52 224 4.0 9.0 0.00 0.00 0.00 73 1011.1
20260508032116 51 215 5.0 9.0 0.00 0.00 0.00 73 1010.8
20260508031613 51 201 4.0 9.0 0.00 0.00 0.00 72 1010.8
20260508031109 51 204 4.0 6.0 0.00 0.00 0.00 72 1010.9
20260508030606 51 185 3.0 5.0 0.00 0.00 0.00 71 1010.8
20260508030104 52 223 2.0 6.0 0.00 0.00 0.00 70 1010.9
20260508025559 52 196 4.0 5.0 0.00 0.00 0.00 70 1010.9
20260508025057 52 157 3.0 7.0 0.00 0.00 0.00 70 1011.1
20260508024553 51 192 3.0 7.0 0.00 0.00 0.00 72 1010.9
20260508024050 51 185 3.0 6.0 0.00 0.00 0.00 73 1011.0
20260508023546 50 188 3.0 5.0 0.00 0.00 0.00 73 1011.0
20260508023044 50 186 2.0 6.0 0.00 0.00 0.00 73 1011.0
20260508022540 50 200 3.0 6.0 0.00 0.00 0.00 74 1010.9
20260508022037 51 196 2.0 5.0 0.00 0.00 0.00 73 1010.9
20260508021532 51 150 2.0 6.0 0.00 0.00 0.00 74 1010.9
20260508021028 51 143 4.0 5.0 0.00 0.00 0.00 74 1010.7
20260508020526 51 149 3.0 5.0 0.00 0.00 0.00 74 1010.6
20260508020024 51 180 3.0 4.0 0.00 0.00 0.00 73 1010.8
20260508015521 51 144 2.0 4.0 0.00 0.00 0.00 72 1010.8
20260508015018 51 152 2.0 4.0 0.00 0.00 0.00 71 1010.6
20260508014514 51 170 2.0 4.0 0.00 0.00 0.00 70 1010.7
20260508014011 51 159 3.0 3.0 0.00 0.00 0.00 69 1010.7
20260508013507 51 130 1.0 3.0 0.00 0.00 0.00 70 1010.3
20260508013005 52 123 0.0 4.0 0.00 0.00 0.00 68 1010.6
20260508012502 52 139 2.0 3.0 0.00 0.00 0.00 67 1010.3
20260508011959 53 170 1.0 3.0 0.00 0.00 0.00 66 1010.2
20260508011457 53 147 2.0 3.0 0.00 0.00 0.00 66 1010.3
20260508010954 53 174 3.0 3.0 0.00 0.00 0.00 65 1010.2
20260508010451 53 187 2.0 3.0 0.00 0.00 0.00 64 1010.4
20260508005948 54 184 2.0 3.0 0.00 0.00 0.00 64 1010.2
20260508005444 54 145 1.0 3.0 0.00 0.00 0.00 64 1010.0
20260508004941 54 190 1.0 4.0 0.00 0.00 0.00 63 1010.0
20260508004437 55 183 2.0 3.0 0.00 0.00 0.00 62 1010.1
20260508003934 55 199 1.0 4.0 0.00 0.00 0.00 61 1010.1
20260508003431 56 210 3.0 4.0 0.00 0.00 0.00 61 1010.0
20260508002928 56 213 2.0 3.0 0.02 0.00 0.00 62 1010.1
20260508002425 56 187 2.0 3.0 0.02 0.00 0.00 62 1010.1
20260508001920 56 202 0.0 2.0 0.00 0.00 0.00 61 1010.1
20260508001417 57 226 0.0 2.0 0.00 0.00 0.00 60 1010.0
20260508000914 58 174 0.0 2.0 0.00 0.00 0.00 58 1010.1
20260508000412 59 246 0.0 3.0 0.00 0.00 0.00 56 1010.3
20260507235907 58 228 1.0 5.0 0.00 0.00 0.00 56 1010.0
20260507235404 58 285 2.0 3.0 0.00 0.00 0.00 58 1009.9
20260507234901 59 233 1.0 4.0 0.00 0.00 0.00 57 1010.1
20260507234359 59 224 0.0 2.0 0.00 0.00 0.00 61 1010.1
20260507233854 57 296 1.0 3.0 0.00 0.00 0.00 63 1010.2
20260507233351 56 89 0.0 2.0 0.00 0.00 0.00 67 1010.5
20260507232849 57 19 0.0 3.0 0.00 0.00 0.00 66 1010.1
20260507232345 58 331 0.0 5.0 0.00 0.00 0.00 65 1010.1
20260507231843 58 15 2.0 3.0 0.00 0.00 0.00 67 1010.4
20260507231339 57 309 1.0 5.0 0.00 0.00 0.00 68 1010.1
20260507230835 55 358 5.0 5.0 0.00 0.00 0.00 69 1010.2
20260507230333 55 325 2.0 4.0 0.00 0.00 0.00 74 1010.0
20260507225833 53 314 3.0 8.0 0.00 0.00 0.00 72 1010.3
20260507225329 53 351 3.0 8.0 0.00 0.00 0.00 72 1010.5
20260507224825 53 325 1.0 11.0 0.00 0.00 0.00 71 1010.2
20260507224322 52 306 0.0 12.0 0.00 0.00 0.00 72 1010.2
20260507223818 53 11 4.0 14.0 0.00 0.00 0.00 67 1010.6
20260507223314 55 17 5.0 11.0 0.00 0.00 0.00 61 1010.8
20260507222812 60 267 10.0 23.0 0.00 0.00 0.00 50 1010.2
20260507222308 60 255 4.0 19.0 0.00 0.00 0.00 51 1010.0
20260507221805 59 249 9.0 19.0 0.00 0.00 0.00 53 1010.2
20260507221302 59 238 9.0 20.0 0.00 0.00 0.00 55 1010.0
20260507220757 59 242 6.0 15.0 0.00 0.00 0.00 57 1010.2
20260507220256 59 242 7.0 19.0 0.00 0.00 0.00 57 1010.3
20260507215752 59 235 11.0 18.0 0.00 0.00 0.00 57 1010.5
20260507215250 59 233 8.0 17.0 0.00 0.00 0.00 57 1010.1
20260507214747 59 251 10.0 20.0 0.00 0.00 0.00 57 1010.2
20260507214244 59 234 13.0 26.0 0.00 0.00 0.00 57 1010.5
20260507213739 60 224 6.0 22.0 0.00 0.00 0.00 56 1010.3
20260507213236 59 208 8.0 15.0 0.00 0.00 0.00 58 1010.3
20260507212733 59 232 5.0 21.0 0.00 0.00 0.00 56 1010.4
20260507212229 59 205 3.0 19.0 0.00 0.00 0.00 57 1010.2
20260507211726 58 232 6.0 20.0 0.00 0.00 0.00 57 1010.4
20260507211222 58 216 7.0 18.0 0.00 0.00 0.00 56 1010.5
20260507210719 58 245 9.0 19.0 0.00 0.00 0.00 56 1010.7
20260507210216 59 268 5.0 24.0 0.00 0.00 0.00 53 1010.5
20260507205712 59 223 5.0 19.0 0.00 0.00 0.00 55 1010.4
20260507205209 59 245 4.0 19.0 0.00 0.00 0.00 55 1010.6
20260507204705 59 235 11.0 21.0 0.00 0.00 0.00 56 1010.8
20260507204203 58 220 8.0 19.0 0.00 0.00 0.00 56 1010.6
20260507203701 58 227 5.0 20.0 0.00 0.00 0.00 58 1010.9
20260507203158 58 247 5.0 24.0 0.00 0.00 0.00 57 1010.9
20260507202654 57 238 11.0 24.0 0.00 0.00 0.00 57 1011.0
20260507202150 58 248 10.0 23.0 0.00 0.00 0.00 58 1011.3
20260507201645 57 239 7.0 24.0 0.00 0.00 0.00 58 1011.4
20260507201142 58 221 9.0 17.0 0.00 0.00 0.00 56 1011.5
20260507200638 57 250 11.0 22.0 0.00 0.00 0.00 57 1011.6
20260507200135 58 240 5.0 17.0 0.00 0.00 0.00 57 1011.5
20260507195632 57 226 9.0 25.0 0.00 0.00 0.00 58 1011.8
20260507195129 56 235 15.0 22.0 0.00 0.00 0.00 58 1012.0
20260507194626 56 233 9.0 28.0 0.00 0.00 0.00 59 1012.3
20260507194121 56 267 6.0 30.0 0.00 0.00 0.00 60 1012.2
20260507193618 57 250 13.0 16.0 0.00 0.00 0.00 58 1012.3
20260507193115 56 226 5.0 12.0 0.00 0.00 0.00 60 1012.3
20260507192611 55 229 9.0 22.0 0.00 0.00 0.00 59 1012.5
20260507192108 55 251 9.0 35.0 0.00 0.00 0.00 58 1012.4
20260507191604 56 253 7.0 25.0 0.00 0.00 0.00 58 1012.5
20260507191101 56 226 6.0 19.0 0.00 0.00 0.00 58 1012.5
20260507190558 56 236 20.0 28.0 0.00 0.00 0.00 57 1012.7
20260507190057 56 233 5.0 17.0 0.00 0.00 0.00 58 1012.9
20260507185555 56 244 12.0 24.0 0.00 0.00 0.00 57 1012.7
20260507185051 55 236 7.0 22.0 0.00 0.00 0.00 57 1012.6
20260507184550 56 211 9.0 24.0 0.00 0.00 0.00 52 1012.5
20260507184047 56 245 5.0 30.0 0.00 0.00 0.00 50 1012.5
20260507183543 56 213 15.0 31.0 0.00 0.00 0.00 47 1012.4
20260507183040 58 266 11.0 18.0 0.00 0.00 0.00 46 1012.4
20260507182536 57 234 5.0 18.0 0.00 0.00 0.00 47 1012.4
20260507182032 57 249 9.0 16.0 0.00 0.00 0.00 46 1012.5
20260507181530 58 237 7.0 19.0 0.00 0.00 0.00 44 1012.4
20260507181026 58 241 11.0 13.0 0.00 0.00 0.00 45 1012.5
20260507180522 57 253 8.0 22.0 0.00 0.00 0.00 46 1012.6
20260507180019 57 243 8.0 27.0 0.00 0.00 0.00 44 1012.7
20260507175515 57 244 4.0 14.0 0.00 0.00 0.00 42 1013.0
20260507175013 56 221 6.0 24.0 0.00 0.00 0.00 43 1012.9
20260507174510 55 202 2.0 16.0 0.00 0.00 0.00 47 1013.0
20260507174008 55 287 7.0 13.0 0.00 0.00 0.00 46 1013.4
20260507173504 56 247 8.0 19.0 0.00 0.00 0.00 44 1013.4
20260507173002 57 256 9.0 14.0 0.00 0.00 0.00 41 1013.3
20260507172457 57 207 14.0 24.0 0.00 0.00 0.00 40 1013.2
20260507171954 57 229 4.0 17.0 0.00 0.00 0.00 41 1013.5
20260507171450 58 233 5.0 8.0 0.00 0.00 0.00 43 1013.6
20260507170947 57 220 10.0 15.0 0.00 0.00 0.00 42 1013.5
20260507170444 57 160 4.0 13.0 0.00 0.00 0.00 43 1013.7
20260507165940 58 201 12.0 12.0 0.00 0.00 0.00 42 1013.8
20260507165436 58 205 3.0 11.0 0.00 0.00 0.00 42 1013.7
20260507164932 57 252 3.0 17.0 0.00 0.00 0.00 42 1014.1
20260507164429 59 220 6.0 9.0 0.00 0.00 0.00 41 1014.0
20260507163926 57 250 7.0 8.0 0.00 0.00 0.00 40 1013.9
20260507163424 57 227 7.0 11.0 0.00 0.00 0.00 44 1014.1
20260507162920 56 209 2.0 14.0 0.00 0.00 0.00 42 1014.3
20260507162415 56 308 4.0 13.0 0.00 0.00 0.00 43 1014.2
20260507161914 57 295 3.0 13.0 0.00 0.00 0.00 41 1014.5
20260507161409 57 230 4.0 8.0 0.00 0.00 0.00 42 1014.4
20260507160906 56 252 5.0 13.0 0.00 0.00 0.00 41 1014.6
20260507160402 56 202 8.0 13.0 0.00 0.00 0.00 43 1014.5
20260507155858 56 221 14.0 14.0 0.00 0.00 0.00 42 1014.9
20260507155354 57 252 3.0 13.0 0.00 0.00 0.00 40 1014.7
20260507154851 55 216 4.0 16.0 0.00 0.00 0.00 44 1014.6
20260507154348 56 242 5.0 14.0 0.00 0.00 0.00 40 1014.7
20260507153846 55 196 8.0 17.0 0.00 0.00 0.00 43 1014.7
20260507153342 56 206 5.0 9.0 0.00 0.00 0.00 45 1014.9
20260507152838 55 243 5.0 10.0 0.00 0.00 0.00 44 1014.8
20260507152334 55 277 2.0 5.0 0.00 0.00 0.00 45 1014.6
20260507151831 55 202 7.0 11.0 0.00 0.00 0.00 44 1014.8
20260507151327 55 244 6.0 7.0 0.00 0.00 0.00 44 1014.9
20260507150824 53 202 3.0 7.0 0.00 0.00 0.00 45 1014.9
20260507150321 53 207 11.0 11.0 0.00 0.00 0.00 43 1015.1
20260507145817 53 203 4.0 10.0 0.00 0.00 0.00 45 1015.4
20260507145313 53 195 9.0 13.0 0.00 0.00 0.00 44 1015.3
20260507144811 53 236 3.0 9.0 0.00 0.00 0.00 46 1015.4
20260507144308 53 205 8.0 10.0 0.00 0.00 0.00 47 1015.4
20260507143804 53 288 1.0 7.0 0.00 0.00 0.00 46 1015.2
20260507143302 52 241 6.0 9.0 0.00 0.00 0.00 47 1015.6
20260507142757 52 118 2.0 8.0 0.00 0.00 0.00 48 1015.6
20260507142254 51 238 5.0 9.0 0.00 0.00 0.00 47 1015.5
20260507141751 51 221 5.0 7.0 0.00 0.00 0.00 49 1015.5
20260507141248 51 207 4.0 12.0 0.00 0.00 0.00 48 1015.5
20260507140744 50 140 8.0 10.0 0.00 0.00 0.00 49 1015.4
20260507140241 51 203 3.0 9.0 0.00 0.00 0.00 50 1015.5
20260507135738 50 217 3.0 4.0 0.00 0.00 0.00 52 1015.6
20260507135236 50 198 3.0 9.0 0.00 0.00 0.00 50 1015.8
20260507134732 50 216 3.0 8.0 0.00 0.00 0.00 51 1015.8
20260507134228 49 221 5.0 8.0 0.00 0.00 0.00 54 1015.8
20260507133724 49 228 4.0 7.0 0.00 0.00 0.00 54 1015.7
20260507133221 49 177 3.0 4.0 0.00 0.00 0.00 54 1016.0
20260507132719 48 151 2.0 7.0 0.00 0.00 0.00 53 1016.1
20260507132215 48 241 3.0 7.0 0.00 0.00 0.00 54 1015.8
20260507131712 48 217 3.0 5.0 0.00 0.00 0.00 54 1015.7
20260507131209 48 207 3.0 6.0 0.00 0.00 0.00 54 1016.1
20260507130706 47 196 4.0 5.0 0.00 0.00 0.00 56 1015.9
20260507130204 47 269 2.0 5.0 0.00 0.00 0.00 55 1015.8
20260507125702 48 227 4.0 4.0 0.00 0.00 0.00 57 1015.7
20260507125159 46 203 1.0 3.0 0.00 0.00 0.00 59 1015.6
20260507124655 45 193 4.0 5.0 0.00 0.00 0.00 60 1015.8
20260507124153 45 180 4.0 5.0 0.00 0.00 0.00 59 1015.9
20260507123651 45 289 1.0 3.0 0.00 0.00 0.00 62 1015.6
20260507123148 45 181 1.0 3.0 0.00 0.00 0.00 64 1015.7
20260507122643 44 181 1.0 4.0 0.00 0.00 0.00 68 1015.6
20260507122139 43 181 2.0 4.0 0.00 0.00 0.00 68 1015.4
20260507121635 43 178 1.0 4.0 0.00 0.00 0.00 68 1015.4
20260507121131 43 136 2.0 3.0 0.00 0.00 0.00 68 1015.2
20260507120628 43 200 1.0 3.0 0.00 0.00 0.00 67 1015.5
20260507120125 43 117 0.0 2.0 0.00 0.00 0.00 68 1015.4
20260507115621 42 134 0.0 2.0 0.00 0.00 0.00 70 1015.5
20260507115117 41 89 0.0 2.0 0.00 0.00 0.00 73 1015.5
20260507114613 40 227 2.0 3.0 0.00 0.00 0.00 74 1015.6
20260507114110 40 125 2.0 2.0 0.00 0.00 0.00 78 1015.4
20260507113608 38 168 1.0 4.0 0.00 0.00 0.00 78 1015.3
20260507113104 37 157 1.0 3.0 0.00 0.00 0.00 81 1015.4
20260507112603 37 116 0.0 3.0 0.00 0.00 0.00 83 1015.3
20260507112059 36 153 2.0 3.0 0.00 0.00 0.00 85 1015.3
20260507111556 35 103 1.0 2.0 0.00 0.00 0.00 88 1015.2
20260507111052 35 120 2.0 3.0 0.00 0.00 0.00 89 1015.4
20260507110549 33 82 1.0 3.0 0.00 0.00 0.00 89 1015.3
20260507110045 32 135 0.0 2.0 0.00 0.00 0.00 89 1015.5
20260507105542 32 101 0.0 2.0 0.00 0.00 0.00 88 1015.4
20260507105038 32 79 1.0 2.0 0.00 0.00 0.00 88 1015.6
20260507104536 32 65 0.0 2.0 0.00 0.00 0.00 87 1015.4
20260507104032 33 89 0.0 1.0 0.00 0.00 0.00 87 1015.4
20260507103528 33 246 0.0 1.0 0.00 0.00 0.00 88 1015.5
20260507103025 33 60 0.0 1.0 0.00 0.00 0.00 88 1015.3
20260507102522 33 76 0.0 2.0 0.00 0.00 0.00 88 1015.4
20260507102018 33 102 0.0 2.0 0.00 0.00 0.00 87 1015.4
20260507101513 33 53 0.0 2.0 0.00 0.00 0.00 87 1015.2
20260507101010 34 130 0.0 2.0 0.00 0.00 0.00 86 1015.5
20260507100508 34 291 0.0 2.0 0.00 0.00 0.00 86 1015.5
20260507100006 34 174 0.0 2.0 0.00 0.00 0.00 86 1015.4
20260507095503 35 57 0.0 2.0 0.00 0.00 0.00 85 1015.5
20260507094959 35 287 0.0 2.0 0.00 0.00 0.00 85 1015.5
20260507094455 35 319 0.0 2.0 0.00 0.00 0.00 85 1015.4
20260507093953 35 126 0.0 2.0 0.00 0.00 0.00 84 1015.4
20260507093450 35 166 0.0 2.0 0.00 0.00 0.00 84 1015.4